Theta_e
315 315 315 316 315 317 322 326 323 324 324 317 318 318 319 321 319 321 322 322 322 322 321 320 320 320 321 322 322 322 321 321 320 320 322 324 321 321 321 320 320 318 319 321 321 322 324 326 328 328 326 326 328 330 330 331 330 328 327 325 323 323 324 323 323 323 324 325 326 328 331 334 335 335 335 335 335 334 333 333 332 331 333 334 334 335 336 336 336 334 335 336 335 334 332 330 328
314 315 315 315 316 319 324 325 320 320 320 316 318 318 318 320 318 320 322 321 321 321 320 320 320 320 321 321 321 321 322 322 321 321 323 322 320 321 321 321 320 318 318 320 320 321 323 325 327 328 327 326 327 329 330 330 330 329 330 328 326 325 325 325 324 325 326 327 329 331 333 335 336 336 336 336 336 335 333 334 333 333 334 334 334 335 335 335 334 334 334 335 335 335 334 332 330
314 313 317 320 321 322 323 323 320 317 316 315 317 319 318 319 320 321 321 320 321 320 319 320 321 320 320 321 321 322 322 322 322 321 323 321 321 323 322 322 320 319 318 318 319 321 323 324 327 329 328 327 326 327 329 331 331 331 331 330 329 327 326 326 327 327 329 329 331 333 334 335 337 337 336 336 336 335 333 333 333 333 333 333 333 333 332 331 331 331 331 331 333 335 334 333 332
314 313 317 323 323 323 323 323 323 318 315 315 315 319 319 318 320 320 321 321 321 319 319 321 321 321 320 321 322 322 322 322 322 320 323 323 321 323 322 322 321 320 319 318 318 320 322 323 326 329 329 328 326 326 327 329 330 330 330 330 330 329 328 327 328 330 330 331 332 334 335 335 336 337 337 337 335 334 332 332 332 331 330 329 328 327 325 324 324 325 325 327 331 334 334 333 333
313 313 315 322 323 324 324 321 322 318 316 317 316 319 320 319 319 319 320 320 321 320 319 321 322 322 321 321 321 321 322 322 321 319 321 321 320 321 321 322 322 320 320 319 317 319 321 321 324 328 330 329 327 326 326 327 328 329 330 331 332 330 328 328 329 331 331 331 333 335 335 336 336 337 337 336 334 332 332 333 332 329 327 325 323 321 319 318 318 317 318 321 323 327 331 332 331
317 318 316 320 323 323 322 319 319 318 319 320 317 319 319 319 320 320 321 320 321 320 319 320 321 322 321 321 321 321 322 321 321 320 319 319 319 320 321 322 322 321 320 319 318 319 320 319 321 325 328 329 327 327 327 327 328 329 329 331 333 331 328 328 328 329 330 331 334 335 335 336 336 336 336 334 333 331 330 332 332 331 328 325 323 320 317 315 314 312 313 315 315 316 320 322 321
321 324 321 320 322 321 319 319 319 318 321 321 318 319 319 319 321 321 321 321 321 320 319 320 320 320 321 321 321 321 320 319 319 319 318 317 317 318 319 321 322 322 321 319 319 319 319 318 317 321 326 328 328 327 327 327 328 329 329 332 334 332 329 328 327 328 330 333 334 335 335 335 336 335 334 334 334 331 328 330 331 330 328 326 323 320 317 314 312 311 311 311 311 311 312 312 312
320 324 323 321 322 322 319 319 319 320 321 320 319 319 319 320 321 320 321 321 321 321 320 320 320 320 321 321 321 321 320 318 318 318 317 317 316 316 317 319 321 322 321 320 319 319 318 317 316 319 323 326 328 327 327 327 328 329 329 332 334 332 331 328 327 328 330 333 335 335 335 335 335 333 332 334 333 330 327 327 328 327 325 324 322 318 315 312 311 310 310 310 309 309 309 308 308
320 322 322 321 322 322 320 320 320 320 320 320 319 319 320 320 321 320 320 321 322 322 321 320 320 320 321 321 321 322 320 318 318 317 317 317 316 316 316 318 320 321 322 320 320 320 319 317 315 317 320 323 325 326 326 326 328 330 331 333 333 331 330 329 327 328 330 333 334 334 335 334 333 332 331 330 328 325 321 318 318 318 316 315 314 312 310 309 308 307 307 306 306 306 305 305 304
321 321 322 322 321 319 318 319 320 320 320 320 319 319 320 320 321 321 320 321 321 322 321 320 319 320 321 321 321 322 320 318 317 318 317 317 317 316 315 317 319 321 322 321 320 321 320 318 316 316 319 321 322 323 325 326 327 329 332 334 333 330 329 328 327 326 329 331 333 334 334 332 329 329 327 323 319 317 313 309 309 309 308 308 307 307 306 305 305 304 304 304 304 303 303 303 304
323 321 321 321 319 317 317 318 319 320 320 320 320 320 320 320 320 320 321 321 321 321 320 318 319 320 321 321 321 322 320 318 318 317 317 317 317 316 316 316 318 320 321 322 321 321 321 320 316 316 318 320 321 322 325 324 323 325 328 330 330 329 327 327 326 325 326 328 330 331 330 328 326 324 322 318 314 311 308 307 306 306 305 305 304 304 304 303 303 303 303 303 303 304 304 304 304
325 322 321 320 319 318 317 318 318 319 320 319 321 321 320 320 320 320 321 321 321 321 321 319 320 320 320 321 322 322 320 318 318 317 317 317 317 317 316 316 318 319 321 321 321 321 321 321 318 316 318 320 321 322 323 321 321 321 323 324 324 325 324 323 322 321 321 323 325 326 325 323 321 318 316 314 310 307 306 305 304 304 304 303 303 303 303 303 303 303 303 304 304 305 305 306 306
323 323 321 319 320 320 318 319 319 320 321 320 320 320 319 319 320 320 320 320 321 321 321 320 320 319 320 321 321 322 321 319 318 317 317 317 317 317 317 316 317 318 320 321 322 321 321 322 319 317 317 320 320 320 320 321 320 320 320 321 321 322 320 318 317 316 317 318 319 321 321 318 316 315 311 309 307 305 305 304 303 303 303 303 303 303 304 304 304 304 305 305 306 306 307 307 307
322 322 321 320 321 320 319 318 319 319 319 320 320 319 318 319 320 320 319 319 320 321 321 320 319 319 319 320 321 321 321 319 318 317 317 317 317 317 317 317 317 318 318 319 320 321 321 322 321 319 317 318 320 319 319 319 319 318 319 320 319 319 319 318 316 314 314 315 315 317 317 315 313 312 309 307 306 304 304 304 303 303 303 304 304 304 304 305 305 306 306 306 307 307 307 307 307
321 322 321 320 320 320 320 320 320 319 318 320 319 318 319 319 319 319 318 318 319 320 319 318 318 318 319 320 321 322 321 319 318 317 317 317 317 317 317 317 317 317 317 317 318 320 321 322 323 322 319 318 319 319 318 319 318 317 317 317 317 317 318 317 314 313 313 313 313 313 312 311 309 308 307 306 304 304 304 304 303 303 304 304 304 305 305 306 306 307 307 307 307 307 307 307 307
320 322 321 320 319 319 322 321 320 318 318 320 319 318 318 318 319 318 319 318 318 319 318 318 318 318 319 319 320 321 319 318 318 317 317 317 317 317 316 316 316 317 317 317 317 318 320 321 322 322 321 319 319 318 318 318 316 316 315 316 317 317 318 316 313 312 312 312 311 310 310 308 308 307 306 304 304 304 304 303 303 303 304 305 305 306 307 307 307 307 307 307 307 307 307 307 307
319 321 321 320 320 319 321 322 320 318 318 319 319 318 318 318 319 318 318 317 317 318 318 318 318 318 318 318 318 318 318 317 317 317 317 317 317 316 316 316 316 316 317 317 317 317 318 319 320 321 321 321 321 320 321 319 315 314 315 315 317 317 317 315 313 312 312 311 310 309 308 308 307 306 305 304 304 304 304 303 303 304 305 306 306 306 307 307 307 307 307 307 307 307 307 307 307
320 321 320 320 320 319 321 321 319 318 318 318 319 319 318 318 318 318 317 317 318 318 318 318 318 318 317 318 317 317 317 317 317 317 317 317 317 316 316 316 316 316 316 316 317 316 317 317 318 319 320 321 322 322 323 323 318 313 314 315 316 316 315 314 313 312 312 310 309 308 307 307 306 305 304 304 304 304 303 303 303 304 305 306 307 307 307 307 307 307 307 307 307 307 307 307 307
320 321 321 320 321 320 321 320 319 317 317 318 318 318 318 318 318 318 317 317 318 317 318 319 319 319 318 319 318 318 317 317 316 316 317 316 317 316 316 316 316 316 316 316 316 317 317 316 317 317 318 319 320 322 324 325 323 316 314 315 314 315 314 313 313 312 311 310 308 307 307 307 306 304 304 304 304 304 303 303 304 305 306 306 306 306 306 306 306 306 306 306 307 306 306 307 307
320 321 320 320 321 320 321 320 319 318 317 318 318 317 318 318 318 318 317 317 317 317 318 318 319 319 319 319 319 318 318 317 316 316 316 316 316 316 316 316 316 316 316 316 316 316 317 316 317 316 318 318 318 321 321 323 322 318 315 314 314 314 313 313 312 312 311 309 308 307 307 307 305 304 304 304 304 303 303 303 304 305 306 306 306 306 306 306 306 306 306 306 306 306 306 306 306
320 321 320 319 320 319 320 319 318 319 318 318 317 317 317 318 318 318 318 317 317 318 318 318 319 319 318 319 318 319 318 318 317 316 315 315 316 315 316 316 316 316 316 316 316 316 316 316 317 316 317 317 317 318 318 319 319 319 318 316 317 315 312 313 312 312 311 310 308 307 307 307 305 304 304 304 303 303 303 304 305 306 306 306 306 306 306 306 306 306 306 306 306 306 306 306 306
320 320 320 319 318 318 319 319 318 319 318 318 317 317 317 318 318 318 318 317 317 317 317 317 318 318 318 318 318 318 319 318 316 316 315 315 315 315 315 315 315 316 315 315 315 315 316 316 316 316 316 316 317 317 317 318 317 319 319 317 318 315 312 313 312 312 312 310 308 308 308 307 305 304 304 305 303 303 304 304 306 306 306 306 306 306 306 306 305 305 305 305 305 306 305 305 306
319 318 318 319 318 319 319 319 318 318 318 317 317 317 317 318 318 317 318 317 318 318 317 317 317 317 317 317 317 318 318 317 316 315 314 314 315 315 315 315 315 315 315 315 315 315 315 315 316 316 317 316 316 316 317 318 316 316 316 315 315 313 312 313 312 313 312 312 310 308 308 307 306 304 304 305 304 304 304 305 306 306 306 306 306 306 306 305 305 305 305 305 305 306 305 305 305
318 316 317 317 318 319 319 318 318 318 318 317 317 317 317 318 317 317 318 318 318 318 318 317 316 316 317 317 317 317 318 317 315 314 314 314 314 314 314 314 315 315 315 315 314 315 314 315 315 315 316 316 316 316 317 317 315 315 314 314 313 313 313 312 312 313 312 312 311 309 308 308 307 304 304 305 304 304 304 305 306 306 306 306 306 306 306 305 305 305 305 305 305 306 306 305 305
318 317 317 317 317 318 318 318 317 318 318 317 317 317 317 317 317 317 317 317 317 318 318 317 317 317 317 317 317 317 317 316 314 314 314 314 314 314 314 314 314 314 314 314 314 314 314 315 315 315 315 316 316 316 316 316 315 315 314 314 313 313 313 312 313 313 312 313 312 310 309 308 307 304 304 305 304 304 304 305 305 306 306 306 306 306 306 305 305 305 305 305 306 306 306 305 305
317 317 317 318 317 318 317 317 317 317 317 317 317 317 317 317 316 316 317 317 317 317 317 317 317 317 317 317 317 317 317 315 314 314 314 314 314 314 314 314 314 314 314 314 314 314 314 314 315 315 315 315 316 316 316 316 315 315 315 314 314 314 313 313 313 313 313 313 312 311 310 308 307 305 305 305 304 304 305 305 305 306 306 306 306 306 306 305 305 305 305 305 306 306 306 306 305
316 316 316 316 316 316 316 316 316 316 316 316 316 316 316 316 316 316 317 317 316 316 317 317 316 316 316 316 316 316 316 315 315 315 314 314 314 314 314 314 314 314 314 314 314 314 314 314 314 314 314 315 315 315 316 316 316 315 315 315 315 314 314 313 313 313 313 313 312 312 311 309 307 306 305 304 305 304 304 305 306 306 306 306 306 306 305 305 305 305 305 305 305 305 305 305 305
315 315 314 315 315 315 315 316 316 316 316 316 315 315 316 316 315 316 316 316 316 316 316 316 316 315 316 316 316 316 316 315 315 315 315 314 315 314 314 314 314 314 314 314 313 314 314 314 314 314 314 314 314 315 315 316 316 316 315 315 315 315 314 314 313 313 313 313 313 312 311 309 308 307 305 305 304 304 305 305 306 306 306 306 305 305 305 305 305 305 305 305 305 305 305 305 305
314 314 313 314 315 315 316 316 316 317 316 315 315 314 314 315 315 316 317 317 317 316 316 316 315 315 315 315 316 316 316 316 315 315 315 315 315 315 314 314 314 314 314 314 314 314 313 313 314 314 314 314 314 315 315 315 315 315 316 316 315 315 315 314 314 313 313 313 313 312 312 310 308 307 306 305 304 304 305 305 305 305 306 306 305 305 305 305 305 305 305 305 305 305 305 305 304
313 314 314 314 315 315 316 317 317 316 315 314 314 313 314 315 316 317 317 317 317 316 316 315 315 315 315 316 315 315 316 316 316 315 315 315 315 314 314 314 314 315 314 314 314 314 313 313 313 313 313 313 314 314 314 314 315 315 315 316 316 315 315 315 314 314 313 313 313 312 312 311 309 308 307 305 304 304 304 304 304 304 305 306 305 305 305 304 304 305 305 305 305 305 305 305 304
314 314 315 314 314 315 317 317 315 315 314 313 313 312 314 315 316 317 316 316 316 316 315 315 315 315 315 315 315 315 315 315 315 315 315 316 315 315 314 314 314 314 314 314 314 314 313 313 313 313 313 313 313 314 314 314 314 314 315 315 316 315 315 315 315 314 314 313 313 313 312 311 310 309 307 306 304 304 304 304 304 304 305 305 305 305 305 304 304 304 304 305 305 305 305 304 304
314 315 315 316 315 316 318 318 316 316 314 313 313 313 315 316 317 317 317 316 315 315 315 315 315 315 316 315 315 316 315 315 315 315 316 315 315 315 314 314 314 313 314 313 313 312 312 312 313 313 313 313 313 313 313 313 314 314 314 315 315 315 315 315 315 315 314 314 313 313 312 311 311 309 308 307 305 304 303 303 303 304 304 305 305 304 304 304 304 304 304 304 305 304 304 304 304
316 316 315 316 316 316 317 317 317 317 314 313 313 314 315 315 316 316 316 316 316 315 316 316 316 316 316 316 315 315 315 316 316 316 315 315 315 314 314 313 313 312 312 312 312 312 312 312 312 312 312 312 312 312 312 313 313 313 314 314 315 315 315 315 315 315 315 315 314 313 312 312 311 310 309 308 306 304 303 303 303 303 303 304 304 304 304 304 304 304 304 304 304 304 304 304 303
316 317 317 317 317 317 316 316 318 317 315 314 314 313 314 314 316 316 315 315 315 315 316 316 316 316 315 315 315 315 316 316 316 316 315 315 314 314 313 313 312 311 311 311 311 311 311 311 311 311 311 311 311 311 312 312 312 313 313 313 314 314 315 315 315 315 315 315 314 314 313 312 311 310 309 308 307 305 303 303 303 303 303 303 303 304 304 303 303 303 303 304 304 303 303 303 303
317 318 317 317 317 316 316 316 317 317 316 316 316 315 315 315 316 316 316 316 316 316 316 316 316 316 316 316 316 316 316 316 316 316 315 314 313 313 313 312 312 311 311 311 311 311 310 310 311 311 311 311 310 310 311 311 311 312 312 313 313 314 314 314 315 315 315 315 315 315 314 313 312 311 310 309 308 306 304 303 302 302 302 302 302 303 303 303 303 303 303 303 303 303 303 303 302
317 317 316 316 316 316 316 317 317 317 317 317 316 316 316 316 316 316 316 316 316 316 316 316 316 316 316 316 317 317 317 317 316 315 314 313 312 312 311 311 311 311 311 311 311 311 311 310 310 311 311 310 310 310 310 310 310 311 311 312 312 313 313 313 314 314 314 315 315 315 315 314 313 312 310 309 308 307 305 303 302 302 302 301 301 302 302 303 303 303 303 303 303 302 302 302 302
317 317 316 316 316 316 316 317 317 317 317 316 316 315 315 315 315 315 316 316 316 316 316 316 316 316 317 317 317 317 317 316 315 315 314 313 311 310 310 311 311 311 311 311 311 311 310 310 310 310 310 310 310 310 310 310 310 310 310 311 311 312 312 313 313 313 314 314 315 315 315 315 314 313 312 310 308 307 305 303 302 302 301 301 301 301 301 302 303 303 302 303 302 302 302 302 302
316 316 316 316 316 316 317 317 318 317 316 315 315 315 315 315 315 315 316 316 316 317 316 317 317 317 318 318 318 317 316 316 316 315 314 312 310 310 310 310 311 311 311 311 311 310 310 310 310 310 310 310 310 309 309 309 309 309 309 310 310 310 311 311 312 312 313 313 314 314 315 315 314 314 313 311 309 308 306 304 302 301 301 301 301 301 301 301 302 302 302 302 302 302 301 302 302
315 315 315 316 317 317 317 318 317 315 314 314 315 314 314 315 315 316 317 317 317 317 317 317 317 318 318 318 317 315 315 316 315 314 313 313 311 310 310 310 311 311 311 311 311 310 310 310 310 309 309 310 309 309 309 308 308 308 308 308 309 309 310 310 310 311 311 312 313 313 314 314 315 314 314 313 311 309 307 305 304 302 301 301 300 300 300 300 301 302 302 302 302 301 301 301 302
315 315 316 316 317 318 318 318 317 315 314 315 315 314 315 316 316 317 317 317 317 317 317 317 318 318 317 316 315 315 315 315 314 313 313 312 311 310 310 310 310 311 311 311 311 311 311 310 310 310 309 309 309 309 309 308 308 308 308 308 308 308 308 309 309 309 310 310 311 312 312 313 314 314 314 314 313 311 308 306 305 304 302 301 300 300 300 300 300 301 302 302 302 301 301 301 301
317 317 317 317 317 318 317 317 316 315 315 315 314 316 317 318 318 317 317 318 318 319 319 318 318 317 316 315 315 314 314 314 313 313 312 311 310 309 309 309 310 311 311 311 311 311 311 311 311 310 310 309 309 309 309 308 308 308 308 308 308 308 308 308 308 308 309 309 310 310 310 311 311 312 313 313 313 313 311 308 306 305 304 302 300 300 300 300 300 300 301 301 301 301 301 301 301
317 318 318 317 317 317 316 316 316 316 316 315 314 317 318 318 318 318 318 318 318 319 319 317 316 315 314 314 314 313 313 313 312 311 310 309 309 309 309 310 310 311 311 311 311 311 311 311 311 311 310 309 309 309 309 309 308 308 307 307 307 307 307 307 307 308 308 308 308 308 308 309 309 310 310 311 312 313 313 312 309 306 305 303 301 300 299 299 299 299 300 301 301 301 301 301 301
317 318 317 317 316 316 316 316 315 315 316 315 314 316 318 318 317 318 318 318 319 319 316 315 314 313 313 313 312 312 312 311 310 309 309 308 308 308 309 310 310 310 310 310 311 311 311 311 311 311 310 310 309 309 309 309 309 308 307 307 306 306 306 306 306 306 306 307 307 307 307 307 308 308 308 309 309 311 312 312 312 310 307 304 302 300 299 299 299 299 299 299 301 301 301 301 301
318 316 315 316 315 315 316 315 315 314 315 316 315 315 317 317 318 319 318 318 319 317 314 314 314 313 312 312 311 311 310 310 309 308 307 307 307 307 308 308 309 310 310 310 311 310 311 311 311 310 311 310 310 309 309 309 309 308 307 307 306 306 305 305 305 305 305 306 306 306 306 306 307 307 307 307 308 308 309 310 311 312 310 307 304 301 299 299 299 299 299 299 299 300 300 301 301
317 314 313 314 313 313 314 313 314 314 315 316 316 315 317 319 318 318 317 317 318 316 314 314 313 312 312 311 310 310 309 308 308 307 306 306 307 307 307 308 308 309 309 309 310 310 310 310 310 310 310 310 310 310 310 310 310 309 308 307 306 305 305 305 305 304 304 305 305 305 305 305 305 306 306 306 306 306 307 307 308 310 311 310 307 304 301 299 298 298 298 298 298 299 300 300 300
315 313 313 313 313 314 314 313 314 314 315 317 318 316 318 320 318 317 317 316 317 316 314 313 312 312 311 310 309 309 308 307 306 305 306 306 306 306 307 308 308 308 309 309 309 310 310 310 309 309 310 310 310 310 310 310 310 310 309 308 307 305 305 304 304 304 304 304 304 304 304 304 304 305 305 305 305 305 305 306 306 307 308 309 309 307 305 301 299 298 298 298 298 298 299 299 300
313 313 313 314 315 315 314 313 313 315 318 319 318 317 318 319 319 318 317 315 315 315 314 312 311 311 310 309 308 307 306 305 305 305 305 306 306 307 307 308 308 308 308 309 309 309 309 309 309 309 310 310 310 309 309 310 310 310 309 309 308 307 306 304 304 303 303 303 303 303 303 303 303 304 304 304 304 305 305 305 305 305 305 306 307 308 307 304 301 299 298 297 297 297 298 298 299
312 313 313 314 316 316 315 314 314 317 321 319 317 317 317 319 319 317 317 315 314 314 314 311 310 310 309 307 306 305 304 303 304 304 305 305 306 306 306 307 307 307 307 308 308 308 309 309 309 309 309 309 309 309 309 309 310 309 309 309 308 308 307 306 304 303 302 302 303 303 302 302 303 303 303 303 304 304 304 304 304 304 304 304 305 306 307 306 303 301 298 297 297 297 297 297 298
311 312 312 315 318 320 320 319 318 320 321 316 315 316 317 318 318 317 318 316 313 312 312 311 309 309 307 305 304 303 303 302 302 303 303 303 303 304 304 304 305 305 305 306 306 307 307 307 307 308 308 308 309 309 309 309 309 309 309 309 308 308 307 307 306 304 302 302 302 302 302 302 302 302 302 303 303 303 303 303 302 303 303 303 303 303 304 305 304 302 299 297 296 296 296 296 297
311 312 314 316 319 322 322 321 319 321 319 314 313 315 317 317 316 317 317 314 312 311 311 310 308 306 304 303 302 302 301 300 300 301 301 301 301 302 302 302 303 304 304 305 305 305 305 306 306 306 306 307 307 307 308 308 308 308 308 308 308 307 306 306 306 305 303 302 301 301 301 301 301 301 301 301 302 302 302 302 302 302 302 302 302 302 302 302 303 302 300 298 297 296 296 296 296
313 314 315 317 319 320 320 319 318 318 318 315 314 316 318 316 316 316 314 311 310 310 308 307 306 305 303 302 301 300 299 299 299 300 299 299 299 300 301 301 302 302 302 303 303 303 304 304 304 304 304 304 305 305 306 306 307 307 307 307 307 307 306 306 305 304 304 303 301 301 301 300 300 300 300 300 301 301 301 301 301 301 301 301 301 301 301 301 301 301 300 299 298 296 296 296 295
314 313 314 316 317 318 318 318 318 318 317 316 315 316 317 316 316 315 313 310 309 308 307 305 304 303 302 301 300 299 298 298 299 299 299 299 299 300 300 300 300 300 300 300 300 300 300 300 301 302 302 303 303 304 304 304 305 305 306 306 306 306 306 306 305 304 304 303 303 302 301 301 300 300 300 299 299 300 300 300 300 300 300 300 300 300 300 300 300 300 299 299 298 297 296 295 295
313 312 314 314 314 316 316 317 317 317 317 317 316 316 316 316 317 316 314 310 308 307 305 305 303 302 301 300 299 298 297 297 297 298 298 299 299 299 299 298 297 297 297 297 297 297 297 297 297 298 298 299 300 301 302 302 302 303 304 305 305 305 305 305 305 304 304 304 303 303 302 302 302 301 300 299 299 299 299 299 299 299 299 299 299 299 299 299 299 299 299 299 298 297 296 296 295
312 313 314 313 313 314 314 315 316 316 316 317 316 316 316 315 317 316 313 310 307 305 304 304 303 302 301 299 298 297 297 297 297 298 298 298 298 297 297 297 296 296 296 296 295 295 296 296 296 296 296 296 296 297 298 298 299 300 301 302 303 304 304 304 304 304 304 304 304 304 303 303 302 302 301 301 300 300 299 298 298 298 299 299 299 299 299 299 299 299 299 299 298 297 296 296 295
312 313 312 313 314 314 313 315 315 316 316 316 316 317 316 316 316 316 314 311 308 305 304 303 303 302 301 299 298 297 296 296 297 297 297 297 296 296 296 296 296 296 296 296 296 296 296 296 296 296 295 295 295 295 295 295 296 296 297 299 300 301 302 302 303 303 303 303 303 303 304 303 303 302 302 301 301 301 301 300 299 298 298 298 298 298 298 298 298 298 298 298 298 297 296 296 295
311 311 311 312 313 313 313 315 315 316 317 316 317 317 316 316 316 315 313 310 308 306 304 303 302 301 300 299 298 297 296 296 295 295 295 294 294 294 295 295 295 295 295 295 295 294 294 294 295 295 295 294 294 294 294 294 294 294 295 296 297 298 299 299 300 301 301 302 302 302 303 303 303 303 302 302 301 301 301 301 300 300 298 298 297 297 297 297 297 298 298 298 298 297 297 296 296
312 311 312 312 312 312 313 313 313 315 316 316 317 317 316 314 313 312 310 308 307 306 305 303 302 301 300 299 298 297 296 295 294 294 294 293 294 294 294 294 294 294 293 293 292 292 292 292 293 293 293 293 293 293 293 293 293 293 294 294 294 295 296 296 297 298 299 300 300 301 301 301 302 303 303 303 302 301 301 300 300 300 300 299 298 297 297 297 297 297 297 297 297 297 297 297 297
314 313 313 313 313 314 314 314 314 314 314 316 316 316 316 311 308 308 308 307 307 306 305 304 302 301 300 298 298 297 296 296 295 295 294 294 294 293 294 293 293 293 293 293 292 292 292 292 292 292 293 293 293 293 293 293 293 293 293 293 293 293 294 295 295 296 297 297 298 299 299 300 300 301 302 302 302 302 301 301 300 300 300 300 299 298 297 296 296 296 296 297 297 297 297 297 297
Wind_Speed
11 10 10 8 7 7 7 6 6 3 3 5 3 2 2 4 4 4 3 3 1 4 7 6 5 6 6 6 7 10 10 8 7 6 4 2 3 6 4 2 4 8 13 18 19 21 22 21 20 19 20 20 20 20 20 19 19 18 17 15 13 12 12 12 12 11 10 9 8 8 6 6 6 5 5 5 6 6 6 5 6 6 6 5 5 6 6 6 7 8 7 7 6 5 5 5 4
9 9 8 8 6 6 5 3 5 3 4 5 0 2 4 2 2 3 3 6 4 4 6 6 6 7 8 9 9 10 8 6 7 8 7 10 10 9 6 4 5 7 12 17 19 21 22 22 21 20 20 20 20 20 20 20 19 18 16 15 14 13 12 12 11 11 10 9 9 8 7 7 7 6 7 7 7 7 7 7 7 7 6 5 6 6 7 9 8 8 8 8 7 6 7 7 6
7 7 5 6 5 6 6 4 5 4 4 4 2 4 3 2 2 3 5 6 5 4 5 5 5 6 7 8 7 7 5 3 5 6 7 11 9 7 7 5 7 7 11 16 19 21 23 22 22 21 21 21 20 21 20 20 20 18 17 15 14 13 12 12 11 11 10 10 9 8 8 9 8 8 8 9 9 8 8 9 8 7 7 6 6 7 9 10 9 8 7 8 7 6 8 9 8
6 5 2 4 6 6 5 4 4 5 4 3 2 4 3 3 4 5 5 6 4 4 4 4 4 4 6 7 5 6 6 4 4 5 4 7 7 6 7 6 8 9 11 15 18 21 23 23 22 22 21 21 21 22 21 21 20 18 17 16 15 14 14 13 12 11 11 11 10 10 10 10 10 10 10 11 11 9 9 11 11 9 8 8 9 10 12 12 11 11 10 9 8 7 8 9 10
4 4 1 3 5 3 3 4 3 5 4 4 3 3 5 3 4 6 6 7 4 3 4 4 3 2 5 7 5 4 5 5 4 6 5 8 8 6 6 6 9 11 11 14 18 21 23 23 22 23 22 22 22 22 22 21 20 19 17 16 16 15 15 14 13 12 12 11 11 11 11 12 12 12 13 14 13 10 10 12 13 11 11 11 12 14 15 15 14 14 14 13 12 11 11 12 13
3 3 2 3 5 3 3 4 3 5 3 3 5 5 6 5 5 6 8 8 3 3 4 5 5 5 6 6 8 7 5 6 5 8 8 9 8 7 6 6 10 12 12 14 19 21 23 23 22 23 23 23 23 23 22 21 20 19 18 17 16 15 15 14 13 13 13 13 13 13 13 13 14 15 16 16 13 12 11 12 14 14 14 15 15 16 16 17 17 16 15 15 14 14 14 15 16
1 3 2 4 4 3 5 5 4 5 2 3 5 6 7 8 8 7 8 6 1 3 4 5 4 6 6 4 7 6 5 7 7 9 10 10 9 9 7 7 10 12 13 15 19 21 22 22 22 23 24 24 24 24 23 22 20 19 19 18 17 16 15 14 13 14 14 14 14 14 14 15 16 18 18 16 15 14 14 14 16 17 17 17 18 18 18 18 17 16 15 15 14 14 15 15 15
2 3 2 4 3 3 5 5 4 4 2 2 5 7 8 9 9 7 7 5 2 2 4 5 4 5 4 3 5 4 7 8 7 8 9 9 9 9 8 8 10 13 14 16 20 21 22 21 21 23 24 24 24 25 24 23 22 21 20 19 18 17 16 15 15 15 15 15 15 15 16 17 18 19 18 17 17 18 17 18 20 21 20 20 19 19 18 16 15 14 14 13 12 12 13 12 12
3 4 3 4 4 3 5 5 4 3 3 3 5 6 7 8 7 6 7 6 4 4 4 5 5 5 2 3 7 5 7 8 6 7 7 7 7 8 8 8 10 13 15 17 20 21 21 20 21 23 24 24 24 24 24 24 24 23 22 21 20 19 18 17 17 17 17 17 17 17 18 19 20 19 19 20 20 19 18 17 19 20 18 17 16 16 15 13 12 11 10 9 9 9 9 8 7
4 4 3 3 4 4 5 4 2 1 2 3 5 7 6 6 5 5 6 6 4 3 3 3 6 10 7 7 8 4 5 6 5 6 6 6 6 7 7 8 11 13 15 18 20 21 21 20 20 23 24 25 24 24 23 24 24 24 24 23 22 21 20 19 19 19 19 20 19 19 19 20 21 20 20 21 19 17 15 13 13 14 12 12 11 11 11 10 9 8 7 6 6 6 6 5 5
5 4 3 4 4 5 4 4 4 3 4 4 5 3 2 2 4 5 5 6 4 3 4 3 5 10 11 10 9 8 7 5 4 5 5 7 7 7 7 9 11 13 16 18 20 21 21 20 20 23 24 25 25 24 24 24 24 24 24 24 23 23 22 22 21 21 22 22 22 22 22 22 22 21 21 21 17 12 12 11 10 10 9 9 9 9 9 8 7 6 5 5 5 5 5 5 5
5 2 3 4 4 4 4 6 6 7 7 6 2 3 1 1 3 4 4 5 5 6 6 7 3 4 7 8 6 8 9 7 5 5 7 8 9 7 7 8 11 13 16 19 21 22 23 21 21 23 24 26 25 25 25 24 23 23 24 23 23 23 23 23 23 23 23 24 24 24 24 24 23 23 21 18 13 11 11 10 9 9 9 8 8 8 7 6 5 5 5 5 5 5 5 5 5
5 3 3 5 4 5 6 6 6 6 7 3 2 5 2 3 5 5 5 7 8 8 5 7 4 5 7 9 7 10 11 9 6 6 9 11 10 8 8 9 10 13 16 19 21 22 24 22 22 24 25 27 26 25 25 25 24 24 24 23 23 23 23 22 22 22 22 24 25 25 26 25 23 22 19 14 11 11 11 9 9 9 9 8 8 7 6 5 5 5 5 5 5 5 5 5 4
5 4 4 4 3 5 6 6 5 5 5 2 4 4 4 5 5 5 6 9 9 6 3 4 5 5 9 10 9 7 9 9 7 9 13 13 12 10 10 10 10 13 16 18 21 23 25 24 23 24 27 28 28 27 26 25 25 24 24 24 24 24 23 22 21 22 22 23 23 24 25 24 22 20 17 13 11 12 11 9 9 10 9 8 7 6 6 5 5 5 5 4 4 4 4 3 3
5 4 4 5 5 6 4 4 5 5 6 2 3 3 4 7 6 5 6 8 9 8 9 9 6 5 6 8 5 1 6 9 11 15 17 15 14 14 13 12 12 14 17 18 20 23 25 25 24 24 27 29 30 29 28 27 26 25 25 24 24 23 22 22 22 22 22 21 21 22 22 22 20 18 16 13 12 12 12 11 11 11 10 9 8 7 6 6 5 5 4 4 4 4 3 3 3
6 4 4 4 6 6 3 3 4 4 5 3 4 3 5 8 7 7 6 6 11 14 15 13 10 11 12 12 11 10 12 15 19 21 20 19 18 17 16 15 15 16 17 19 21 22 24 26 26 26 27 29 30 30 29 29 29 27 26 26 25 24 23 23 22 21 21 21 20 20 20 20 19 17 16 15 14 13 13 12 12 12 11 10 9 8 7 7 6 5 5 4 4 4 4 4 4
5 4 5 5 6 6 3 3 4 4 7 6 2 4 6 8 5 7 8 9 13 17 19 18 14 18 22 21 20 23 24 24 25 24 23 23 22 20 19 18 18 18 19 20 21 23 25 27 28 29 28 27 28 28 28 28 30 29 28 28 26 26 25 24 23 22 21 21 21 21 20 20 19 18 17 16 16 15 14 14 14 13 12 11 10 9 8 8 7 6 6 5 5 4 4 4 5
5 4 5 5 6 6 4 4 7 8 9 9 7 6 8 10 8 6 7 10 14 16 20 23 18 20 27 25 25 27 26 25 24 23 23 24 24 23 22 21 21 21 21 21 22 24 26 28 28 30 30 28 27 27 26 25 28 30 29 29 28 27 27 25 24 23 23 22 22 21 21 20 20 20 18 18 17 16 15 15 15 14 13 13 12 11 10 9 8 8 7 7 6 6 6 6 6
7 5 6 6 7 8 7 7 10 11 11 13 14 14 11 11 12 9 8 12 13 15 19 22 20 20 24 24 24 23 19 19 21 21 22 24 25 26 25 25 24 23 24 23 23 24 26 28 29 30 31 30 29 27 25 23 25 30 30 30 30 29 28 27 26 25 25 24 23 22 22 21 21 21 20 19 18 17 17 17 16 16 15 14 13 12 11 11 10 9 9 8 8 7 7 7 7
8 7 6 7 8 11 10 10 12 13 14 15 15 16 15 12 14 12 10 14 13 15 18 19 20 19 17 17 18 20 19 17 19 23 24 25 27 27 27 27 27 25 25 25 25 26 27 28 29 30 31 32 32 30 28 26 26 29 29 31 31 31 31 29 28 27 27 26 25 24 23 23 22 22 21 20 19 18 19 18 18 17 16 16 15 14 13 13 12 11 10 10 9 9 8 8 8
5 7 8 9 10 11 11 13 14 13 12 14 17 17 16 14 14 13 12 12 10 15 19 18 20 20 17 16 15 17 20 20 21 27 28 27 28 28 28 28 28 27 25 26 27 28 28 29 29 30 31 33 34 34 33 31 30 28 28 30 30 32 33 31 30 29 29 27 26 25 25 25 24 23 23 21 20 20 21 20 20 19 18 17 16 15 15 13 13 12 11 11 10 9 9 8 8
6 9 13 15 15 13 13 15 12 9 9 13 17 16 15 14 12 15 15 12 12 17 20 20 23 24 22 21 19 17 20 24 27 30 31 28 27 28 28 27 27 28 28 26 26 27 28 29 30 30 31 34 35 36 36 34 33 31 29 31 30 33 35 33 33 32 31 29 27 27 26 26 25 24 24 22 22 23 23 22 21 20 19 18 17 17 16 15 14 13 12 11 11 10 9 9 8
7 12 16 17 17 15 15 15 9 7 11 15 16 15 17 16 16 20 19 18 22 25 25 26 29 31 29 25 22 19 21 26 30 29 27 26 25 25 26 26 27 28 29 27 25 26 28 29 30 31 32 35 35 36 37 35 35 35 35 35 35 36 37 35 35 33 33 30 29 28 27 28 27 26 26 24 24 25 25 24 22 21 21 19 18 18 17 16 16 14 13 12 11 11 10 9 9
9 12 15 17 18 17 16 16 12 10 14 17 17 17 19 19 19 22 23 23 25 28 28 31 34 34 30 26 22 21 23 26 28 27 25 25 24 23 24 24 26 27 30 28 26 26 28 28 28 31 33 35 36 36 39 38 37 38 38 39 39 39 39 38 37 35 34 32 30 29 28 29 28 27 28 26 26 27 26 25 23 23 22 20 20 20 18 17 17 15 14 13 12 11 11 10 9
13 14 16 17 17 16 15 16 15 14 15 17 16 18 23 23 21 25 30 28 27 29 31 31 31 30 27 24 22 20 22 26 28 27 25 25 24 23 24 24 26 27 29 29 27 26 27 27 28 30 32 34 36 36 39 40 39 40 39 40 40 39 40 40 38 37 36 34 32 31 30 29 28 29 30 28 28 29 28 26 25 24 23 22 22 21 19 19 18 17 15 14 13 12 12 11 10
8 11 15 15 14 15 16 18 18 16 17 16 14 17 24 23 19 23 28 24 21 24 26 26 24 24 23 21 20 19 22 25 27 26 25 25 24 23 22 22 24 25 26 27 27 26 25 27 28 29 30 32 35 36 39 40 41 41 40 40 40 40 41 41 40 39 38 37 35 33 31 29 30 31 31 30 30 30 29 28 27 25 24 24 23 22 21 20 20 18 17 16 14 13 13 12 11
9 11 13 15 18 21 21 22 22 19 19 19 15 15 21 20 12 16 20 14 13 15 17 20 20 21 22 20 20 19 22 25 25 24 24 24 24 24 22 22 24 23 24 25 25 25 25 27 27 28 29 31 34 36 38 39 41 42 41 41 40 41 41 41 41 40 40 39 37 35 32 30 31 32 33 32 31 31 31 30 28 27 26 26 25 23 23 22 21 19 18 17 16 15 14 13 12
12 12 14 17 21 22 22 23 23 18 15 15 14 14 19 17 10 18 27 21 18 18 17 18 19 22 23 22 22 20 23 29 30 29 29 28 28 29 29 28 28 27 27 27 25 25 26 26 26 27 27 29 32 35 37 38 40 42 42 42 42 42 42 42 43 42 41 41 38 36 34 32 32 33 34 34 33 33 32 31 30 28 28 28 26 25 25 24 22 21 20 19 18 17 15 14 13
10 10 11 16 17 17 21 21 20 18 9 3 6 10 13 12 13 24 29 23 19 17 16 18 19 22 22 22 22 21 23 27 32 35 35 34 33 32 32 32 31 31 31 30 29 29 29 28 27 27 26 28 30 33 36 37 38 41 42 42 43 44 43 43 44 43 42 41 39 38 36 34 34 35 35 36 35 34 34 32 31 31 30 29 28 27 26 25 24 23 22 20 19 18 17 16 14
9 12 9 11 12 12 17 14 9 10 6 7 4 7 8 9 14 21 20 15 14 14 15 20 22 23 23 22 23 24 25 26 30 34 34 32 33 32 32 30 29 29 30 31 32 32 32 31 30 28 27 28 29 31 34 36 38 39 41 42 43 45 44 44 44 44 43 43 41 39 38 37 36 36 37 37 36 36 35 34 33 33 32 31 30 29 28 27 26 25 23 22 21 20 18 17 16
8 12 7 7 8 7 10 5 6 4 5 10 7 7 8 10 13 16 13 9 10 13 18 24 27 27 24 24 25 27 29 29 30 30 26 25 27 31 32 29 25 25 27 29 31 31 31 32 32 30 29 29 29 30 32 34 36 38 40 42 43 44 44 45 45 44 44 44 42 41 40 39 38 37 38 38 37 37 36 36 35 34 34 32 31 30 29 29 29 27 25 24 23 21 20 18 17
7 9 7 7 7 8 8 5 8 6 3 11 10 7 8 9 11 13 13 13 14 17 21 25 28 28 26 26 27 29 31 30 28 25 22 21 21 26 30 27 22 21 23 25 26 27 27 29 30 30 30 30 30 31 31 32 34 36 39 41 42 43 44 45 45 45 45 45 44 43 42 41 40 39 39 39 38 38 38 37 36 36 35 34 33 32 31 31 31 29 27 26 24 23 22 20 20
7 8 8 8 9 9 8 3 5 6 2 10 12 8 9 9 12 17 19 22 24 22 24 27 30 30 27 26 26 27 29 27 24 21 19 18 18 21 25 23 19 17 18 18 20 22 22 23 25 26 27 29 30 31 31 31 33 36 38 40 41 43 45 45 45 45 46 46 45 45 44 43 42 41 40 39 39 39 39 38 37 37 37 36 35 34 33 34 33 31 29 27 26 25 24 22 22
6 7 9 10 11 10 8 6 7 3 4 8 12 11 13 13 15 20 21 23 24 24 26 29 28 28 27 26 26 26 25 24 21 17 15 16 18 18 18 18 17 15 14 14 14 17 18 18 21 22 23 25 27 29 30 31 33 35 37 40 41 43 45 44 44 45 46 47 47 47 46 45 43 41 41 40 40 40 39 39 39 39 39 37 37 36 35 36 34 32 31 29 28 27 26 24 23
10 10 9 10 11 12 13 11 10 9 11 15 14 14 16 15 15 18 21 22 23 25 28 28 26 26 28 27 25 24 22 19 15 13 16 19 18 16 14 14 14 12 11 11 10 12 14 15 17 18 19 21 23 25 27 30 33 34 36 39 41 43 44 44 44 45 45 46 47 47 47 46 44 42 42 42 41 41 41 40 41 41 40 39 40 39 38 38 36 34 33 32 30 29 28 26 25
16 14 11 12 13 13 15 15 13 15 17 16 15 16 17 15 14 16 22 26 26 27 28 26 25 25 27 26 22 18 14 11 12 14 17 16 13 12 11 10 10 9 7 7 7 8 9 10 13 15 16 18 19 21 24 28 31 33 35 37 39 41 42 42 43 44 45 46 46 46 46 46 45 44 43 43 43 43 42 42 42 43 42 42 42 41 40 39 38 36 35 34 32 31 30 28 27
17 15 12 14 15 13 14 15 14 13 14 12 12 16 17 17 15 16 25 28 23 23 22 23 25 26 23 17 12 8 7 11 14 14 12 10 9 7 6 5 5 6 5 4 3 4 5 6 8 11 13 14 15 18 21 24 26 28 31 33 35 37 39 41 42 43 44 45 46 46 47 46 46 45 45 45 45 45 44 44 44 44 44 44 43 42 41 40 39 38 37 36 34 33 32 31 30
15 13 12 13 12 13 14 16 15 11 10 10 12 16 17 17 17 19 25 22 17 17 17 20 24 22 15 8 4 6 8 11 11 10 11 13 15 16 15 14 14 14 12 10 8 6 4 3 3 6 9 10 11 14 16 19 20 23 25 28 30 32 35 38 39 41 43 45 46 47 48 48 47 47 47 48 47 46 46 46 46 46 45 44 44 43 42 42 41 40 40 38 36 35 34 33 31
13 10 10 10 9 12 14 12 9 4 3 8 14 15 15 16 19 20 16 11 11 15 18 21 20 15 10 6 6 7 7 8 11 14 15 17 20 21 21 21 20 19 18 16 15 13 11 9 6 4 5 7 8 10 12 14 16 18 20 23 26 28 31 33 35 38 40 42 45 47 48 49 49 48 49 49 49 48 48 47 47 47 45 45 45 45 45 44 43 42 42 41 39 37 36 35 33
10 9 9 10 10 11 10 7 6 5 6 11 14 13 12 14 15 13 6 3 7 15 20 19 12 8 6 5 5 6 8 11 14 17 18 18 20 23 23 23 22 21 21 21 21 20 19 16 14 10 8 6 6 6 7 9 12 14 16 18 21 23 26 29 32 34 36 39 41 43 45 47 48 49 50 50 50 50 49 48 49 48 47 46 46 47 47 47 46 45 44 43 42 40 39 38 36
9 10 9 11 12 13 12 11 12 12 11 9 10 11 8 5 4 5 2 2 9 18 18 6 3 3 4 6 8 11 13 15 16 18 20 20 21 23 22 22 22 22 23 23 23 23 21 20 18 16 14 11 8 6 5 6 9 11 13 15 17 19 22 25 27 30 32 34 35 37 39 40 42 45 47 49 50 50 50 50 50 50 49 48 47 48 49 48 48 47 46 46 45 44 42 41 38
9 9 10 13 14 14 15 14 12 9 6 3 7 9 5 1 1 5 6 8 14 17 8 10 13 12 12 13 14 16 17 18 20 21 21 21 21 21 21 22 23 23 23 22 22 22 20 20 19 19 17 15 12 10 7 5 6 9 11 14 16 18 20 22 24 26 29 30 31 32 33 34 36 39 41 44 47 48 49 50 52 52 52 50 49 49 49 50 50 50 49 48 47 46 44 43 41
7 4 5 8 11 12 12 11 8 6 6 3 4 6 6 4 7 10 8 11 16 7 9 15 16 17 17 18 19 19 20 20 22 23 23 23 23 23 23 23 22 22 21 20 20 20 20 20 19 19 18 16 14 13 11 9 8 8 9 11 14 16 19 21 23 25 27 28 29 30 31 32 33 33 35 38 40 43 45 48 51 53 54 53 51 50 50 52 52 51 50 50 49 47 47 46 45
5 2 5 5 7 9 8 7 6 5 9 9 5 6 7 7 6 7 8 14 14 2 14 14 15 18 18 19 21 22 22 21 21 23 25 26 26 26 25 23 22 20 19 19 19 20 20 20 20 20 19 18 17 16 15 14 13 11 10 10 12 13 16 18 20 23 26 27 28 29 30 31 32 31 32 33 34 36 38 42 46 51 54 54 53 52 51 52 53 52 52 51 50 50 50 49 48
2 3 2 3 4 6 5 5 7 7 8 8 5 7 6 8 3 3 7 11 7 8 13 11 15 17 17 18 20 21 21 20 21 23 25 26 26 26 26 24 23 21 21 21 21 21 21 21 21 20 20 21 20 19 18 18 17 15 14 12 12 12 14 16 17 19 23 26 27 27 28 30 31 31 31 31 32 33 33 36 40 45 50 53 55 55 53 52 53 54 54 53 52 52 52 51 49
1 3 1 2 3 5 5 6 6 6 8 9 7 9 6 7 2 3 3 3 2 8 10 11 15 16 15 16 18 20 19 19 20 22 24 24 24 24 24 23 23 23 23 22 21 21 22 22 22 22 22 22 21 21 21 21 21 20 18 16 14 13 13 14 16 17 20 23 25 26 27 28 30 30 30 30 31 32 32 33 35 39 44 48 53 55 55 54 55 56 55 54 54 53 53 53 52
2 1 4 5 6 6 5 5 4 5 7 8 7 12 8 5 1 1 2 2 3 5 7 10 14 15 14 15 17 19 18 19 20 22 23 23 22 22 21 21 22 22 22 21 22 22 22 23 23 23 23 23 23 23 23 23 23 23 21 19 18 16 14 14 15 17 18 19 22 25 27 27 29 29 29 30 30 30 30 31 33 35 38 42 48 52 54 56 57 57 56 55 55 55 55 54 53
0 3 4 5 6 4 4 4 3 5 7 3 1 6 8 7 3 1 3 5 5 5 6 9 12 12 13 15 17 17 18 20 21 22 23 21 21 21 21 22 22 22 22 22 22 23 22 23 23 23 23 23 24 24 24 25 25 24 24 22 21 19 18 17 16 16 17 18 19 21 24 26 27 28 28 29 28 28 29 31 32 32 34 37 41 46 50 54 56 57 57 57 56 56 57 56 55
3 3 3 5 5 4 5 5 4 6 5 2 4 0 6 9 7 7 8 1 8 9 9 12 13 12 14 15 16 17 17 20 23 23 23 23 23 23 23 23 23 23 24 24 24 24 23 23 23 23 24 24 24 24 24 25 25 25 25 24 23 22 20 19 18 17 16 17 18 19 20 23 25 27 28 28 27 27 29 31 31 31 32 33 35 39 44 49 53 57 58 58 58 58 57 57 57
7 6 5 5 4 5 7 6 6 7 4 3 3 1 5 7 7 10 9 2 13 15 15 17 16 15 15 15 16 16 17 21 23 23 23 23 22 22 22 23 23 23 22 22 23 23 23 23 23 23 23 22 22 23 23 24 24 24 24 24 24 24 22 21 20 20 18 17 17 17 18 19 22 25 27 29 28 27 28 29 30 31 31 31 33 35 38 42 48 53 57 59 59 59 58 58 59
8 6 5 6 5 7 7 6 7 8 7 2 3 2 4 4 1 4 8 13 16 17 18 17 18 17 16 16 17 17 19 21 22 22 22 21 21 21 22 22 22 21 21 20 20 20 20 21 21 22 22 22 23 23 24 24 24 23 23 23 24 24 24 24 22 21 21 20 19 18 18 19 20 22 24 26 28 27 26 28 29 30 30 30 32 33 34 38 42 48 53 56 58 59 59 59 59
4 2 3 5 4 4 6 7 8 9 9 6 5 4 5 4 2 2 10 17 16 16 17 16 16 16 15 16 16 16 19 20 20 20 19 19 20 20 20 20 20 19 20 20 20 20 20 19 19 19 20 21 22 23 23 23 23 23 23 23 23 24 25 26 25 23 22 21 21 21 21 20 20 21 21 23 27 28 26 26 27 28 29 29 31 32 33 35 38 42 47 51 55 58 58 59 60
2 2 3 2 1 2 6 8 8 7 9 8 6 8 8 7 9 7 8 15 14 12 13 14 15 14 14 13 11 11 13 15 17 18 17 17 18 18 18 19 18 18 19 19 20 20 21 20 20 20 20 20 20 21 21 21 21 21 21 21 22 24 25 26 27 26 24 23 23 23 24 24 22 22 21 21 25 26 25 25 26 26 27 28 30 31 32 33 35 38 42 45 50 53 56 59 60
2 3 2 1 0 1 3 6 7 8 10 7 7 12 11 7 5 1 11 14 11 9 10 12 12 12 11 10 8 9 11 13 15 16 15 16 16 16 16 16 17 17 18 20 20 21 21 22 22 23 24 23 23 22 21 20 19 19 20 20 21 22 24 26 27 28 28 26 25 25 24 25 24 24 24 23 25 25 24 24 25 24 25 27 28 30 31 32 34 36 38 40 43 48 52 57 59
3 2 2 1 4 4 5 7 6 9 10 8 9 12 10 9 8 1 7 11 10 9 8 9 9 9 9 9 8 9 11 12 13 13 13 13 14 14 15 15 17 18 19 20 21 22 22 23 24 24 25 24 24 23 21 20 19 19 20 20 21 21 22 24 26 27 28 28 27 26 25 25 25 25 25 25 26 27 26 25 25 24 24 25 27 28 29 31 33 35 36 38 40 42 47 52 55
2 3 1 2 3 4 6 5 3 7 10 9 8 9 8 6 5 2 6 9 9 8 7 7 7 7 7 6 6 6 7 8 9 10 10 10 12 13 15 17 18 19 20 21 22 23 24 24 25 25 24 24 23 23 22 21 21 22 21 21 21 21 21 22 23 24 26 27 27 27 27 26 25 25 24 24 25 26 27 27 27 25 24 24 25 26 28 30 32 33 34 36 37 39 43 48 50
4 5 5 5 4 2 4 4 3 5 8 8 8 8 7 3 4 6 9 9 7 7 8 6 6 7 6 5 4 3 3 4 6 7 9 10 12 14 16 17 18 19 20 21 22 23 23 25 25 25 26 25 25 25 25 25 25 25 24 23 22 21 20 20 21 22 23 25 26 27 28 28 27 25 25 25 25 25 26 27 27 27 27 26 25 25 26 28 31 32 32 33 34 36 40 44 46
2 2 4 5 5 3 5 6 5 4 6 7 8 9 5 1 4 6 8 7 6 7 7 6 6 6 5 4 4 4 5 6 8 9 11 13 14 15 16 17 18 19 20 21 21 22 23 24 25 25 26 26 27 27 28 28 27 27 26 25 24 23 22 22 22 22 23 24 25 26 27 28 28 27 26 25 25 25 25 26 27 28 28 27 27 26 26 28 30 31 32 33 33 34 37 39 41
Wind_Direction
298 300 301 301 308 312 290 284 282 222 238 270 265 310 61 49 355 299 306 38 45 58 14 328 305 284 277 306 325 323 302 284 306 322 339 3 341 351 342 262 221 211 204 212 212 204 205 207 209 211 207 203 198 194 193 192 194 196 198 200 204 204 203 203 200 201 202 206 206 206 205 205 209 205 208 202 202 196 183 178 166 166 170 174 180 182 186 193 213 223 222 218 209 204 211 212 189
302 303 304 304 304 295 287 289 291 258 251 274 181 46 32 39 277 277 9 21 13 21 345 310 294 268 267 289 294 295 290 265 286 316 316 306 311 319 308 252 233 213 204 210 213 208 206 207 207 211 210 207 203 199 197 194 196 198 202 205 209 208 208 209 207 208 208 210 207 206 206 208 210 208 208 205 208 201 189 181 166 167 175 183 192 201 213 221 236 244 241 242 236 228 223 218 211
303 307 309 306 281 261 281 263 267 295 289 296 67 77 21 328 353 11 18 13 7 356 323 304 281 262 260 258 270 283 293 303 297 312 302 306 308 295 295 244 232 218 206 208 211 210 208 209 207 209 212 211 207 204 202 199 200 200 204 207 209 211 210 211 212 213 213 213 208 205 208 212 209 206 206 206 214 214 205 197 181 175 183 195 206 219 235 245 257 263 261 263 263 252 231 223 224
301 307 298 284 266 243 263 251 264 300 292 309 18 77 46 336 356 359 357 353 344 324 309 300 269 244 253 258 295 284 283 318 315 327 300 298 303 281 287 243 231 225 214 207 209 210 211 213 208 208 212 212 210 209 208 207 205 204 206 209 210 211 212 213 212 213 214 213 208 206 209 212 210 207 207 210 219 223 220 212 204 200 206 218 229 240 253 262 266 268 270 267 267 265 244 233 236
303 309 267 243 265 271 281 271 271 272 286 333 322 24 33 4 340 334 331 327 316 301 290 272 267 246 260 264 284 274 309 337 313 326 301 287 298 286 280 246 230 229 224 208 208 210 212 217 211 209 211 212 212 212 213 212 211 210 209 211 212 210 211 212 211 213 214 212 209 209 209 210 210 210 213 217 222 228 229 222 220 224 234 243 249 256 262 266 267 269 270 267 265 264 258 254 256
334 311 263 223 261 305 284 263 265 258 303 353 303 326 350 351 349 331 317 314 292 272 262 240 269 290 275 250 241 246 298 319 308 312 299 292 292 285 276 249 233 232 231 210 208 210 214 219 215 211 211 212 212 213 214 214 215 214 213 213 213 210 210 211 212 213 211 211 210 210 210 210 212 216 221 223 227 235 240 234 231 237 246 253 258 263 267 269 271 271 269 265 263 262 262 263 266
270 252 221 218 237 250 260 262 280 284 22 28 310 317 323 330 338 322 309 310 233 206 218 222 267 285 277 249 239 247 284 299 298 297 297 296 286 282 272 249 237 233 230 213 210 212 216 220 217 213 212 213 213 214 215 214 215 214 215 215 215 213 211 214 214 213 210 210 210 211 211 212 216 222 229 231 234 241 248 246 243 246 249 254 260 265 269 271 272 272 268 264 264 264 264 265 267
181 240 232 248 231 202 258 271 277 289 13 6 305 303 308 318 323 312 304 301 275 234 212 218 238 261 266 238 254 276 305 314 306 299 301 294 284 278 265 250 239 231 228 218 215 215 219 221 216 213 212 215 215 216 216 215 214 214 216 216 218 217 216 218 216 215 212 210 210 212 214 216 221 229 237 239 241 246 251 253 253 253 253 255 259 264 266 269 269 267 264 261 263 264 265 266 267
205 247 241 259 261 231 261 264 267 278 291 313 299 297 300 303 309 301 297 288 278 278 229 215 213 239 289 253 265 273 294 321 327 315 314 299 290 275 260 246 237 231 229 221 220 220 224 224 216 213 213 215 217 218 218 216 215 213 215 216 218 219 218 218 217 217 215 213 213 216 220 224 230 237 243 244 248 256 260 258 254 254 256 256 256 258 260 262 259 256 254 254 257 257 259 259 260
219 237 263 270 269 262 262 263 283 302 299 314 294 297 301 298 301 288 290 292 288 286 233 206 214 238 280 288 279 263 275 314 321 328 338 323 309 281 259 241 235 231 230 225 224 225 228 228 219 214 214 216 218 219 219 218 217 215 215 216 217 219 217 216 218 218 218 218 217 219 225 232 239 243 249 254 259 261 260 254 249 252 255 253 249 249 250 246 241 238 237 238 241 242 244 246 247
230 220 269 277 261 271 291 313 324 325 321 307 285 283 300 309 300 277 266 280 282 272 233 198 221 238 260 276 276 262 267 288 289 325 338 328 324 297 268 241 235 231 229 228 228 229 231 231 222 217 216 217 219 219 220 220 219 218 218 219 220 222 221 220 223 224 224 225 224 226 232 239 246 249 253 261 264 257 249 246 245 249 247 243 239 234 230 223 218 214 215 218 223 228 232 238 243
249 215 234 269 280 293 318 321 314 315 308 290 259 139 127 256 263 274 271 286 284 280 248 202 231 269 254 265 266 255 268 274 261 300 317 318 318 304 283 253 238 234 229 228 230 230 233 234 226 220 218 219 222 220 220 222 221 222 223 224 225 226 227 228 229 230 229 230 231 235 241 246 250 254 256 256 254 248 245 244 243 245 239 230 225 218 213 208 204 205 212 219 223 228 231 235 239
258 288 259 276 297 300 308 305 302 307 301 294 108 129 159 239 251 285 303 298 282 284 261 196 244 295 269 276 275 257 263 264 248 285 307 308 305 298 289 267 245 236 232 230 231 231 233 236 228 222 221 222 224 223 222 223 224 225 225 227 228 229 232 233 235 236 234 233 235 238 244 249 250 253 255 248 241 243 240 240 241 239 232 222 217 213 213 214 215 217 222 229 232 236 238 240 240
256 297 280 286 293 283 285 286 298 302 304 23 95 144 193 245 261 287 293 290 288 294 291 232 254 275 272 271 268 247 232 237 254 292 301 301 298 290 284 275 256 240 235 233 232 232 232 235 230 223 223 224 226 227 226 226 227 228 227 227 229 230 233 236 239 239 238 237 238 239 243 248 248 248 249 243 236 239 235 233 232 227 222 219 219 220 223 225 227 231 233 240 246 251 252 253 250
251 294 272 275 281 275 256 263 301 296 298 325 122 146 227 255 251 264 274 281 300 310 299 283 244 239 277 273 288 297 211 243 281 296 298 295 290 285 281 277 266 247 240 236 233 234 233 234 230 225 225 225 226 228 229 229 230 230 230 229 229 230 232 237 239 240 241 241 241 240 242 245 245 242 241 237 232 233 229 224 223 219 218 218 221 223 226 229 232 237 241 247 251 256 257 258 260
246 278 259 263 274 276 239 234 289 277 305 347 134 166 267 272 246 241 255 267 294 296 289 277 234 240 268 275 290 293 270 275 287 293 295 291 286 283 278 273 267 256 248 241 235 234 234 233 230 228 227 224 225 226 228 229 231 231 231 231 230 230 232 236 239 240 241 241 240 240 241 243 242 238 233 230 227 226 222 218 217 215 216 216 218 220 224 227 232 237 238 242 244 250 255 256 259
237 254 250 260 263 268 261 239 286 294 318 332 178 202 269 289 255 230 252 262 276 282 278 270 248 252 265 268 272 276 277 281 285 289 291 288 285 280 275 270 265 261 256 249 242 237 234 234 232 230 229 226 224 224 225 228 231 230 230 231 230 231 233 236 239 240 240 240 239 239 239 239 238 235 230 227 224 220 216 213 213 213 214 214 213 215 219 223 227 231 232 235 239 245 250 255 257
215 237 248 255 262 277 291 278 300 303 300 305 294 276 276 287 282 258 267 264 262 270 272 271 260 254 265 270 273 279 282 283 286 287 287 286 284 279 276 272 267 263 260 254 249 243 238 237 234 232 232 230 225 223 223 225 231 230 228 230 230 231 232 235 237 238 239 239 237 236 235 234 233 232 228 226 223 218 214 211 212 211 212 211 210 212 214 217 219 221 225 229 234 240 244 250 252
225 248 262 256 263 283 294 288 295 297 294 298 298 293 286 283 286 285 280 275 275 275 272 273 269 259 264 267 273 282 284 282 284 284 282 282 281 279 277 274 270 265 262 259 254 250 246 241 238 235 235 234 229 224 222 221 228 231 229 229 230 232 233 234 235 236 237 237 236 233 232 231 229 229 228 226 223 217 213 212 212 211 210 210 210 211 211 212 213 215 219 223 229 235 239 242 245
236 240 260 260 266 279 279 281 287 288 292 294 294 296 292 282 280 276 269 276 278 273 271 274 275 274 273 269 271 277 277 275 277 282 281 279 279 277 276 274 274 271 266 265 260 254 249 247 243 239 237 236 233 229 227 224 227 232 231 230 231 232 232 233 234 235 234 235 235 232 230 229 228 228 228 225 221 217 214 212 212 211 209 209 211 211 211 211 211 213 217 222 226 230 234 237 239
239 225 250 270 281 285 274 283 288 283 288 291 292 295 290 285 280 266 262 274 271 263 268 272 277 284 287 286 287 281 277 274 274 282 284 279 277 276 275 273 273 275 271 265 260 256 252 250 248 243 240 238 237 234 233 232 230 231 231 230 230 232 233 232 233 234 234 233 234 232 228 228 227 226 227 224 220 218 216 214 213 212 211 211 212 213 213 211 212 215 219 223 227 229 232 233 234
256 242 250 267 275 278 277 288 289 275 285 288 286 288 290 292 279 262 259 262 260 265 276 283 284 287 288 288 292 286 274 274 278 284 286 283 279 277 276 274 271 271 269 266 263 261 257 252 251 248 245 241 239 237 235 236 234 231 231 232 231 234 235 233 233 233 234 233 233 232 228 228 227 226 227 224 220 220 219 217 215 214 214 214 214 216 216 213 215 218 221 225 228 230 231 232 233
253 260 256 263 269 271 279 290 285 265 276 277 279 286 291 287 276 272 266 257 261 268 276 282 284 286 287 287 286 277 265 271 281 286 287 286 282 278 276 275 272 268 269 270 266 264 260 254 251 249 247 244 242 239 236 237 237 236 235 235 236 237 237 236 235 233 235 234 233 233 230 228 227 225 227 224 221 223 223 220 217 217 218 217 215 218 217 216 219 221 224 227 230 231 232 232 232
243 268 268 270 272 274 278 284 281 268 265 268 276 284 281 274 278 283 274 267 270 272 273 277 282 286 287 286 282 271 264 272 284 288 288 285 283 282 279 276 272 268 269 270 267 264 261 256 252 250 249 247 245 242 239 240 241 239 238 237 238 238 238 238 237 235 236 236 235 235 232 230 228 226 228 226 223 225 226 223 219 218 220 217 217 219 218 218 221 223 225 228 230 230 231 231 231
244 257 268 274 274 274 277 279 275 266 261 264 269 270 267 268 280 283 276 275 273 271 273 275 280 284 284 283 280 270 268 278 287 290 287 285 285 283 280 277 273 269 269 272 271 267 263 259 253 250 249 249 248 245 242 242 242 241 239 238 239 239 239 240 239 238 237 237 236 235 234 231 229 228 229 228 226 227 228 225 222 221 221 219 218 221 219 220 222 223 225 226 227 228 228 229 229
265 267 275 285 284 282 282 278 272 265 261 260 257 259 265 273 282 278 273 276 275 270 271 275 280 282 283 284 281 273 270 280 289 291 289 288 287 284 281 279 277 276 274 274 274 271 268 263 257 251 248 248 249 248 246 244 243 243 242 241 241 240 240 241 241 240 239 239 237 236 235 233 231 230 231 230 228 229 229 227 226 224 223 222 222 222 221 221 224 224 225 225 225 226 227 227 227
303 300 295 290 286 285 280 275 271 264 262 258 248 256 271 278 282 273 273 278 279 277 275 280 287 288 288 287 284 277 273 285 293 292 289 286 286 288 289 287 285 286 283 278 276 275 271 267 264 257 250 247 247 248 248 246 244 245 245 244 243 243 242 242 243 242 241 241 239 238 237 234 233 233 233 232 231 231 231 230 229 227 225 225 224 223 222 223 224 225 226 225 224 225 226 225 226
298 301 301 287 282 280 273 270 268 260 260 257 245 254 270 274 255 254 271 280 278 278 280 282 286 289 291 290 287 279 276 287 294 289 285 282 283 286 288 288 287 287 283 279 278 277 272 269 267 263 257 251 247 246 247 246 246 246 246 246 245 244 243 243 244 244 243 243 242 239 238 236 235 235 234 234 233 232 232 232 231 229 228 227 225 224 223 223 225 226 226 225 224 225 225 225 225
294 290 291 285 282 277 271 267 262 255 246 205 228 253 260 255 238 245 263 277 276 271 277 284 286 287 290 289 286 279 274 282 288 288 288 287 285 284 284 285 285 282 278 274 273 270 268 267 266 265 262 257 252 248 247 247 247 247 247 247 247 246 245 244 245 245 245 246 244 241 239 237 236 236 236 235 234 234 234 233 232 230 230 228 227 226 225 224 225 226 226 226 226 225 225 225 225
283 281 275 283 285 276 275 269 252 250 211 145 193 269 272 264 259 262 273 286 281 269 277 291 291 290 290 287 284 278 273 272 277 285 290 292 292 289 287 287 286 282 276 271 268 265 265 265 264 264 261 258 256 252 250 249 248 248 248 248 248 248 247 246 246 246 246 247 246 244 241 238 237 237 237 237 235 235 235 234 232 231 231 230 229 228 226 225 226 227 226 226 227 226 226 225 226
276 284 265 264 274 276 282 248 171 217 173 160 208 267 279 282 281 284 297 309 291 276 284 292 289 288 287 283 280 276 273 270 273 279 282 286 289 289 291 293 289 281 274 270 268 267 267 264 262 260 258 257 256 254 252 251 250 249 249 249 249 249 249 248 248 248 247 248 247 246 243 240 239 238 238 238 237 236 236 235 233 232 232 232 230 229 228 227 227 227 227 227 227 227 227 226 226
267 279 267 253 258 280 284 211 188 251 200 170 205 269 281 280 290 293 302 304 291 282 286 289 286 285 284 280 277 273 273 274 275 279 279 278 276 280 291 299 294 280 273 271 270 269 265 263 260 255 253 253 253 254 254 254 253 251 250 250 250 251 251 250 250 249 249 249 248 247 246 243 241 239 239 240 239 238 237 236 235 233 233 233 232 230 228 228 228 228 228 228 228 228 228 226 226
249 253 265 267 270 284 289 257 252 277 193 182 212 262 285 281 290 292 295 294 290 288 287 285 283 283 281 278 275 273 275 277 281 283 283 281 276 278 289 298 298 288 278 271 268 266 263 262 260 256 254 254 254 255 255 255 254 252 251 251 251 251 251 252 251 251 251 250 250 249 247 245 243 241 240 241 241 239 238 238 236 235 235 233 232 231 229 229 229 229 229 229 229 229 228 227 227
262 259 267 271 273 286 292 297 303 275 212 240 241 251 270 276 284 287 288 287 286 285 282 278 279 283 283 280 277 275 276 281 287 288 288 290 289 286 286 289 295 297 288 276 267 265 264 261 261 259 257 257 256 255 254 254 253 252 251 251 250 251 252 252 252 252 251 250 250 250 249 248 245 243 243 243 242 241 240 239 238 237 236 234 233 231 230 231 230 229 230 230 229 229 228 227 227
283 285 289 287 285 293 293 293 303 292 277 284 280 270 276 283 287 287 285 283 279 275 274 276 281 285 283 280 277 278 282 288 290 291 296 299 296 290 286 285 290 294 290 282 272 264 262 260 261 259 257 259 258 256 254 252 251 251 251 250 250 250 252 253 253 253 253 252 252 251 251 251 248 246 244 244 243 243 242 240 239 238 236 235 234 232 230 231 230 230 230 230 229 229 229 228 228
284 289 291 290 286 285 287 286 291 295 289 288 287 285 289 292 292 290 283 277 271 269 272 280 284 279 275 276 280 286 292 296 300 305 311 311 307 300 295 294 297 302 300 288 280 271 266 262 262 260 258 259 260 259 256 253 252 250 250 249 250 250 252 253 254 255 255 255 255 254 254 253 252 249 246 245 244 243 243 241 240 240 237 235 235 233 232 232 232 231 231 231 230 229 229 228 228
283 287 282 279 279 278 281 282 284 290 289 284 286 289 293 296 294 287 280 276 272 271 274 277 275 270 273 283 295 307 313 312 316 327 342 350 357 7 12 21 25 26 24 0 331 310 293 278 272 270 265 262 262 263 262 261 260 257 255 255 255 255 255 254 254 254 255 255 255 254 254 254 252 250 247 246 244 243 243 242 241 241 238 236 236 235 234 234 234 232 232 232 231 230 229 229 230
278 279 278 275 276 279 280 282 286 295 292 284 289 291 294 298 292 280 278 280 280 274 268 264 265 271 285 308 340 335 323 327 344 13 32 37 46 55 60 63 66 65 61 55 50 42 23 347 306 287 277 272 270 272 272 272 272 269 266 265 264 263 261 260 258 257 257 256 255 254 253 253 251 250 248 246 245 244 243 243 243 242 240 238 238 237 235 235 234 233 232 231 231 230 230 231 231
273 271 274 275 277 282 283 282 282 290 291 292 299 299 295 288 280 278 283 286 279 266 256 260 269 284 300 315 328 328 342 17 42 53 51 48 50 56 64 67 68 68 66 64 61 57 54 46 32 351 308 293 282 280 284 285 283 280 276 273 270 267 266 265 264 262 261 259 258 256 255 254 253 251 249 247 246 245 244 244 244 244 243 241 239 238 236 235 234 233 233 232 231 229 229 231 231
260 260 269 275 279 283 287 293 291 292 291 293 301 299 288 276 264 265 272 249 260 260 255 262 277 297 306 320 345 6 36 56 62 59 56 54 52 56 62 64 66 68 68 66 63 60 57 52 48 41 23 2 326 303 297 293 288 285 284 281 278 276 274 272 271 269 267 265 263 262 261 260 259 256 254 251 248 246 244 244 246 246 245 243 241 240 238 237 236 234 234 232 231 229 229 231 230
260 258 259 267 276 284 292 307 312 305 292 294 310 301 288 283 244 223 226 259 277 273 268 271 54 47 37 43 46 50 55 63 66 60 57 58 56 55 59 62 66 69 67 66 64 61 60 57 55 53 49 41 25 6 339 308 297 295 292 286 285 284 282 280 280 279 278 277 276 274 272 269 267 265 262 259 255 251 247 244 245 246 246 244 242 241 241 240 238 237 235 233 233 232 232 233 232
271 263 260 269 283 295 301 310 318 309 291 29 8 321 299 48 291 278 294 295 282 280 304 48 56 49 52 53 51 56 58 60 61 58 57 56 55 55 60 65 66 67 65 64 64 62 61 58 56 55 53 49 41 36 28 357 328 316 308 301 297 293 290 289 288 288 287 286 284 282 280 277 274 270 268 265 262 258 253 249 246 245 246 245 243 242 241 241 240 239 237 236 236 235 234 235 234
272 292 311 299 300 303 308 313 315 303 290 336 8 307 287 287 279 280 279 271 269 278 59 60 53 52 56 53 49 51 53 57 57 55 52 50 51 54 57 59 60 63 64 64 63 62 60 57 55 53 51 47 42 40 38 30 14 353 336 322 312 304 298 295 293 292 290 288 287 286 285 282 279 276 273 270 267 264 260 255 250 248 247 246 244 243 242 242 242 241 239 238 238 237 235 235 236
262 18 1 333 313 303 310 312 295 285 292 293 252 229 268 287 282 268 244 253 264 88 80 68 58 54 54 58 58 54 51 54 52 49 50 51 52 52 52 54 55 58 60 60 60 57 56 54 52 50 47 45 41 37 36 33 26 17 5 349 334 322 312 304 297 292 290 291 290 289 289 288 286 284 280 277 273 270 265 260 255 251 248 247 245 244 242 243 243 242 241 239 238 237 236 237 238
270 68 360 328 307 292 293 289 282 285 295 289 222 192 258 288 285 222 229 259 271 101 89 76 69 57 49 57 64 63 59 58 55 53 55 54 54 54 54 54 54 54 54 54 53 52 51 50 49 47 45 42 38 33 32 30 26 21 15 5 352 341 328 319 310 301 296 296 295 295 294 293 292 291 288 284 280 276 271 266 261 256 252 249 247 245 244 243 244 243 242 240 239 238 238 238 239
59 91 296 274 246 257 257 263 280 284 275 274 236 191 241 298 291 189 211 282 348 97 93 81 77 68 57 54 58 62 61 59 60 61 61 59 58 58 57 56 54 53 51 50 50 49 48 47 45 44 42 40 37 33 30 27 25 21 16 8 359 350 337 324 318 312 306 302 301 302 302 299 297 296 294 291 287 284 279 273 266 260 257 253 250 249 246 244 244 244 244 243 241 239 239 239 238
66 264 286 276 249 242 242 246 267 271 263 276 242 196 218 296 316 175 104 97 48 66 91 91 80 73 65 54 52 55 56 58 61 64 66 64 61 59 57 56 53 51 50 49 48 47 45 44 41 39 38 35 33 31 28 26 23 20 15 9 1 354 345 333 324 319 314 306 302 303 305 304 301 299 297 295 293 290 287 282 276 269 263 258 254 252 249 246 245 245 245 243 242 240 240 240 239
253 260 288 295 268 234 234 224 200 252 266 320 73 186 223 252 228 97 79 113 87 54 88 101 91 84 72 58 53 52 53 61 65 64 64 62 61 58 55 53 52 50 48 46 46 44 43 41 37 34 33 31 28 25 22 19 17 15 12 7 2 356 349 341 332 323 317 311 304 300 303 305 305 304 301 298 297 295 292 288 284 278 271 265 259 256 253 250 247 247 246 244 242 241 240 241 240
207 232 244 272 279 253 252 246 226 260 264 118 90 194 246 250 251 262 265 193 88 83 96 102 99 92 77 66 61 56 55 63 66 65 62 59 58 55 53 52 49 46 42 41 39 38 37 36 33 30 28 26 23 20 16 13 11 9 7 3 1 357 351 344 336 329 322 316 307 300 300 302 304 306 306 304 301 298 295 292 289 286 281 275 269 263 258 254 250 248 247 246 244 242 241 240 240
192 205 211 222 257 265 267 271 263 266 263 144 130 266 263 265 266 256 255 76 85 90 94 97 97 89 76 67 63 60 60 65 67 66 63 60 57 55 52 49 45 43 39 36 33 31 30 29 27 26 25 23 20 17 14 11 8 6 3 0 358 356 354 348 340 333 325 317 308 301 298 297 298 302 306 307 305 302 298 296 293 290 287 283 278 271 265 259 254 250 248 247 246 244 243 242 241
195 204 214 224 247 260 269 279 273 276 287 262 177 196 258 270 49 92 92 85 88 89 88 88 87 84 78 69 64 61 63 66 67 66 64 61 59 54 50 45 41 39 35 33 33 31 28 25 23 21 20 19 18 16 14 11 8 5 2 0 358 357 356 353 348 340 330 321 312 305 302 299 298 299 300 301 302 303 302 299 297 293 290 287 282 278 272 265 260 255 252 249 247 246 245 243 242
194 154 220 243 258 255 264 271 272 286 296 272 222 225 256 259 265 156 110 95 90 88 86 82 78 78 77 70 65 63 66 69 68 68 64 59 53 48 45 43 41 38 36 35 34 33 34 32 30 26 22 19 16 15 15 12 9 4 2 1 359 358 358 356 355 351 342 332 324 317 312 308 305 302 299 296 297 301 302 300 298 295 292 288 284 281 277 272 266 261 257 253 249 247 246 244 243
131 140 216 236 346 279 268 267 265 267 270 264 248 256 264 266 270 244 138 102 90 89 85 81 80 81 81 78 75 74 75 75 73 69 63 54 49 45 43 43 43 41 40 40 39 38 38 38 37 37 34 30 25 21 19 15 11 7 4 3 1 360 358 358 359 357 354 349 342 335 328 322 316 309 303 298 297 299 300 298 296 294 292 290 286 283 279 276 272 266 262 258 253 249 247 246 244
175 201 229 58 21 254 254 262 263 254 256 257 247 261 271 270 277 140 115 106 99 95 89 88 90 89 88 87 84 81 77 72 67 61 53 48 44 43 42 41 40 39 37 38 38 36 35 33 32 32 33 33 32 30 27 23 18 15 12 9 4 1 358 356 355 355 355 354 352 349 343 337 330 321 313 306 300 299 298 296 294 293 291 289 287 285 282 278 275 271 268 264 259 253 250 249 247
246 295 10 315 260 254 240 246 254 251 256 256 244 255 265 260 268 270 120 118 111 102 92 90 88 84 83 81 76 74 71 67 61 53 48 44 42 41 40 37 33 31 29 28 26 25 24 24 24 25 26 26 26 27 28 28 25 23 20 16 9 4 358 353 350 348 348 349 350 350 349 346 341 334 326 317 308 305 301 296 292 290 289 288 287 285 283 281 277 274 271 268 264 258 254 253 250
239 289 270 231 261 270 258 260 265 252 258 263 254 251 250 259 296 9 101 104 106 106 95 86 82 81 81 80 77 73 69 68 63 59 55 49 45 39 33 31 29 27 26 24 22 20 19 18 17 18 18 19 19 20 20 20 20 20 19 16 12 6 0 354 349 345 343 343 344 344 345 346 344 341 335 327 319 314 310 303 297 292 288 286 285 284 283 281 279 276 274 271 269 264 259 256 255
227 234 233 226 227 250 273 268 240 244 260 266 264 256 247 285 19 73 95 92 94 99 99 101 99 97 99 98 99 97 85 68 58 54 49 42 37 32 28 26 24 22 22 22 22 21 18 16 14 12 11 10 10 9 8 8 9 10 10 10 9 5 1 357 351 347 343 341 340 339 340 341 341 341 338 334 329 322 317 311 305 299 292 287 284 283 282 281 279 278 276 273 272 269 264 262 260
299 250 253 261 258 260 274 259 227 224 249 251 257 261 256 10 47 81 91 85 81 79 85 97 95 93 93 85 75 65 48 38 33 28 25 24 22 19 20 19 18 16 15 15 15 13 12 10 7 6 5 3 1 360 360 0 1 1 1 1 1 359 357 354 351 347 345 343 340 338 337 337 337 338 337 335 332 328 323 317 311 306 300 293 287 283 282 281 280 279 277 275 273 270 267 267 266